“In life, you're either a passenger or a pilot. It’s your choice.”

WELCOME TO YOUR AVIATION DREAM!

What's new Up There Icon

WHAT’S NEW HERE?

4000+ aviation terms, acronyms and definitions!
Make your study a little easier with the aviation glossaries that gather over 4000 terms and acronyms extracted from weather, communications, technical and more general topics…
Partnership Icon

PARTNESHIP ANNOUNCEMENT

I am proud to announce a partnership with nizul Logo, study partner of every pilot who wants to consolidate their ground school knowledge and master their written examination.

Try Me Icon

ALL YOURS FOR 30 MINUTES!

Not sure you’d get along with a freelance instructor? How about giving it a try with a 30 minute flight?
My treat! All free.

Resources Tool Box

STUDENT RESOURCES

As a registered student training with me, you get access to a whole lot of files, tools, documents, aviation glossaries, videos, quizzes, sample tests, etc… 

Control Tower Icon

QUESTIONS? CHECK F.A.Q.

In aviation, the only stupid question is the one you didn’t ask. And there is a big chance yours has already been answered in the FAQ. Check it out!

Brain Icon

ARE YOU WIRED FOR FLYING?

Flying an aircraft is usually not the most difficult part of the “problem” and it takes a certain mindset to deal with the other aspects of a flight. Find out wether…

THEY DID IT!

Meet those who refused to be the passengers of their lives, and learn about their experience.

QUICK FACTS

Aviation is a world of serious numbers.
Here are my own, and they count as much as the other ones.

0
YEARS OF
WISDOM
0
YEARS OF
SKY FUN
0
AMAZING
STUDENTS
0
HOURS OF
PURE EXCITEMENT

Grow some wings,
Come fly with me!

Vancouver Island Weather

METARs and TAFs.
VICTORIA INTL (CYYJ)
METAR:

CYYJ 270500Z 31021G31KT 30SM FEW030 FEW060 06/M05 A2997 RMK CU1SC1 CU TR SC TR TCU ASOCTD DIST TCU TOPS S SLP149

TAF:

TAF TAF CYYJ 270538Z 2706/2806 30020G30KT P6SM FEW060 BECMG 2710/2712 30010G20KT FM271800 VRB03KT P6SM SCT160 BKN240 FM272100 14010KT P6SM BKN100 FM280000 20008KT P6SM -RA SCT012 OVC060 FM280300 20008KT 4SM -RA BR SCT007 OVC012 RMK NXT FCST BY 271200Z

NANAIMO (CYCD)
METAR:

CYCD 270500Z 31011G21KT 280V340 15SM FEW080 06/M04 A2999 RMK AC1 LAST STFD OBS/NEXT 271400Z SLP157

TAF:

TAF CYCD 261738Z 2618/2705 31010KT P6SM FEW015 FM262000 34010G20KT P6SM SCT040 TEMPO 2620/2705 BKN040 RMK NXT FCST BY 270000Z

LONG BEACH (CYAZ)
METAR:

CYAZ 270100Z 31021G31KT 15SM FEW040 FEW220 07/01 A2999 RMK CU1CI2 CU TR LAST STFD OBS/NXT 271500UTC SLP158

TAF:

TAF CYAZ 261838Z 2619/2701 30015G30KT P6SM FEW030 FEW150 RMK NXT FCST WILL BE ISSUED AT 271645Z

For more in-depth weather information, please, check Collaborative Flight Planning Service

For all Runway conditions in CYYJ, please check

IIDS Web View

Windy’s Forecast & Observations